Location: Newark
(48.3453°N, 0.5589°E)
Time: 14:13:54
(UTC+00:00)

Altair - Visible Passes

Search period start: 14 December 2019 00:00
Search period end: 24 December 2019 00:00
Orbit: 1502 x 1682 km, 47.2° (Epoch: 14 December)

Date Brightness Start Highest point End Pass type
(mag) Time Alt. Az. Time Alt. Az. Time Alt. Az.
14 Dec 9.1 17:17:10 10° SE 17:19:33 11° ESE 17:21:55 10° ESE visible
14 Dec 8.0 19:13:28 10° SSW 19:21:20 39° SSE 19:21:20 39° SSE visible
14 Dec 9.1 21:16:34 10° WSW 21:19:23 22° WSW 21:19:23 22° WSW visible
15 Dec 8.0 18:48:32 10° SSW 18:57:07 37° SE 18:57:50 37° SE visible
15 Dec 8.6 20:51:24 10° WSW 20:55:53 32° WSW 20:55:53 32° WSW visible
16 Dec 8.1 18:23:37 10° SSW 18:32:03 35° SE 18:34:18 31° ESE visible
16 Dec 8.2 20:26:15 10° WSW 20:32:20 44° SW 20:32:20 44° SW visible
17 Dec 8.3 17:58:43 10° SSW 18:06:59 32° SE 18:10:44 25° E visible
17 Dec 7.7 20:01:06 10° WSW 20:08:46 57° SSW 20:08:46 57° SSW visible
17 Dec 9.5 22:05:42 10° W 22:06:48 14° W 22:06:48 14° W visible
18 Dec 8.4 17:33:52 10° SSW 17:41:56 30° SE 17:47:06 19° E visible
18 Dec 7.5 19:35:58 10° SW 19:45:09 65° S 19:45:09 65° S visible
18 Dec 9.2 21:40:29 10° W 21:43:11 22° W 21:43:11 22° W visible
19 Dec 8.6 17:09:02 10° S 17:16:53 28° SE 17:23:28 13° E visible
19 Dec 7.4 19:10:50 10° SW 19:20:24 63° SSE 19:21:30 60° SE visible
19 Dec 8.7 21:15:17 10° W 21:19:32 31° W 21:19:32 31° W visible
20 Dec 8.7 16:44:15 10° S 16:51:50 26° SE 16:59:12 10° E visible
20 Dec 7.6 18:45:43 10° SW 18:55:16 61° SSE 18:57:49 48° ESE visible
20 Dec 8.3 20:50:04 10° W 20:55:51 42° W 20:55:51 42° W visible
21 Dec 7.7 18:20:36 10° SW 18:30:08 58° SSE 18:34:06 36° E visible
21 Dec 7.8 20:24:52 10° W 20:32:09 57° WSW 20:32:09 57° WSW visible
21 Dec 9.7 22:29:45 10° W 22:30:10 12° W 22:30:10 12° W visible
22 Dec 7.8 17:55:31 10° SW 18:05:01 56° SSE 18:10:23 27° E visible
22 Dec 7.5 19:59:39 10° W 20:08:25 74° WSW 20:08:25 74° WSW visible
22 Dec 9.4 22:04:33 10° W 22:06:26 18° W 22:06:26 18° W visible
23 Dec 7.9 17:30:26 10° SW 17:39:53 53° SSE 17:46:39 20° E visible
23 Dec 7.3 19:34:27 10° WSW 19:44:13 83° S 19:44:40 80° SE visible
23 Dec 9.0 21:39:21 10° W 21:42:41 25° W 21:42:41 25° W visible
